CAPE
0 0 0 0 0 0 0 0 0 0 0 0 0 0 0 0 0 0 0 0 0 0 0 0 0 0 0 0 0 0 0 0 0 0 0 0 0 0 0 0 0 0 0 0 0
0 0 0 0 0 0 0 0 0 0 0 0 0 0 0 0 0 0 0 0 0 0 0 0 0 0 0 0 0 0 0 0 0 0 0 0 0 0 0 0 0 0 0 0 0
0 0 0 0 0 0 0 0 0 0 0 0 0 0 0 0 0 0 0 0 0 0 0 0 0 0 0 0 0 0 0 0 0 0 0 0 0 0 0 0 0 0 0 0 0
0 0 0 0 0 0 0 0 0 0 0 0 0 0 0 0 0 0 0 0 0 0 0 0 0 0 0 0 0 0 0 0 0 0 0 0 0 0 0 0 0 0 0 0 0
0 0 0 0 0 0 0 0 0 0 0 0 0 0 0 0 0 0 0 0 0 0 0 0 0 0 0 0 0 0 0 0 0 0 0 0 0 0 0 0 0 0 0 0 0
0 0 0 0 0 0 0 0 0 0 0 0 0 0 0 0 0 0 0 0 0 0 0 0 0 0 0 0 0 0 0 0 0 0 0 0 0 0 0 0 0 0 0 0 0
0 0 0 0 0 0 0 0 0 0 0 0 0 0 0 0 0 0 0 0 0 0 0 0 0 0 0 0 0 0 0 0 0 0 0 0 0 0 0 0 0 0 0 0 0
0 0 0 0 0 0 0 0 0 0 0 0 0 0 0 0 0 0 0 0 0 0 0 0 0 0 0 0 0 0 0 0 0 0 0 0 0 0 0 0 0 0 0 0 0
0 0 0 0 0 0 0 0 0 0 0 0 0 0 0 0 0 0 0 0 0 0 0 0 0 0 0 0 0 0 0 0 0 0 0 0 0 0 0 0 0 0 0 0 0
0 0 0 0 0 0 0 0 0 0 0 0 0 0 0 0 0 0 0 0 0 0 0 0 0 0 0 0 0 0 0 0 0 0 0 0 0 0 0 0 0 0 0 0 0
0 0 0 0 0 0 0 0 0 0 0 0 0 0 0 0 0 0 0 0 0 0 0 0 0 0 0 0 0 0 0 0 0 0 0 0 0 0 0 0 0 0 0 0 0
0 0 0 0 0 0 0 0 0 0 0 0 0 0 0 0 0 0 0 0 0 0 0 0 0 0 0 0 0 0 0 0 0 0 0 0 0 0 0 0 0 0 0 0 0
0 0 0 0 0 0 0 0 0 0 0 0 0 0 0 0 0 0 0 0 0 0 0 0 0 0 0 0 0 0 0 0 0 0 0 0 0 0 0 0 0 0 0 0 0
0 0 0 0 0 0 0 0 0 0 0 0 0 0 0 0 0 0 0 0 0 0 0 0 0 0 0 0 0 0 0 0 0 0 0 0 0 0 0 0 0 0 0 0 0
0 0 0 0 2 1 0 0 0 0 0 0 0 0 0 0 0 0 0 0 0 0 0 0 0 0 0 0 0 0 0 0 0 0 0 0 0 0 0 0 0 0 0 0 0
0 0 0 0 0 0 0 0 0 1 0 0 0 0 0 0 0 0 0 0 0 0 0 0 0 0 0 0 0 0 0 0 0 0 0 0 0 0 0 0 0 0 0 0 0
0 0 0 0 7 0 0 13 15 2 0 0 0 0 0 0 0 0 0 0 0 0 0 0 0 0 0 0 0 0 0 0 0 0 0 0 0 0 0 0 0 0 0 0 0
0 0 0 1 0 0 12 6 2 6 0 0 0 0 0 0 0 0 0 0 0 0 0 0 0 0 0 0 0 0 0 0 0 0 1 0 0 0 0 0 0 0 0 0 0
0 0 0 0 0 1 14 4 3 3 3 0 0 0 3 25 0 11 0 0 0 0 0 0 0 0 0 0 0 0 0 0 0 0 0 0 0 0 0 0 0 0 0 0 0
0 0 0 0 0 10 10 2 1 0 0 0 0 0 0 18 9 9 5 0 0 0 0 0 0 0 0 0 0 0 0 0 0 1 0 0 0 0 0 0 0 0 0 0 0
0 0 0 3 8 12 2 0 0 0 0 0 0 0 0 0 2 8 6 16 14 5 0 13 0 0 0 0 0 0 0 0 0 5 8 0 0 0 0 0 0 0 0 0 0
0 0 0 21 0 2 0 0 0 0 0 0 0 0 0 0 3 3 3 21 31 0 8 10 44 0 0 0 0 0 4 10 13 1 1 5 1 0 0 0 0 0 0 0 0
0 0 1 18 0 0 0 0 0 0 0 0 0 2 0 0 3 0 0 0 1 3 29 6 6 0 0 0 0 0 0 1 1 0 0 22 27 0 0 0 0 0 0 0 0
0 0 6 9 1 0 0 0 1 0 3 1 0 0 1 0 0 0 0 5 0 1 0 1 7 5 2 0 0 3 0 2 4 0 0 0 0 0 0 0 0 0 0 0 0
0 0 0 1 2 4 0 0 0 0 0 0 0 0 0 0 0 0 0 6 0 0 0 4 0 0 2 8 3 0 0 0 0 0 4 0 0 0 0 0 0 0 0 0 0
0 0 0 0 0 6 7 0 0 0 0 0 0 3 0 3 2 0 0 0 0 0 0 0 0 0 0 0 0 0 0 0 0 0 0 0 0 0 0 0 0 0 0 0 0
0 0 0 0 0 0 0 0 0 1 0 0 0 0 0 0 0 0 0 0 0 0 0 3 0 0 0 0 0 0 0 0 0 0 0 0 0 0 0 0 0 0 0 0 0
CIN
0 0 0 0 0 0 0 0 0 0 0 0 0 0 0 0 0 0 0 0 0 0 0 0 0 0 0 0 0 0 0 0 0 0 0 0 0 0 0 0 0 0 0 0 0
0 0 0 0 0 0 0 0 0 0 0 0 0 0 0 0 0 0 0 0 0 0 0 0 0 0 0 0 0 0 0 0 0 0 0 0 0 0 0 0 0 0 0 0 0
0 0 0 0 0 0 0 0 0 0 0 0 0 0 0 0 0 0 0 0 0 0 0 0 0 0 0 0 0 0 0 0 0 0 0 0 0 0 0 0 0 0 0 0 0
0 0 0 0 0 0 0 0 0 0 0 0 0 0 0 0 0 0 0 0 0 0 0 0 0 0 0 0 0 0 0 0 0 0 0 0 0 0 0 0 0 0 0 0 0
0 0 0 0 0 0 0 0 0 0 0 0 0 0 0 0 0 0 0 0 0 0 0 0 0 0 0 0 0 0 0 0 0 0 0 0 0 0 0 0 0 0 0 0 0
0 0 0 0 0 0 0 0 0 0 0 0 0 0 0 0 0 0 0 0 0 0 0 0 0 0 0 0 0 0 0 0 0 0 0 0 0 0 0 0 0 0 0 0 0
0 0 0 0 0 0 0 0 0 0 0 0 0 0 0 0 0 0 0 0 0 0 0 0 0 0 0 0 0 0 0 0 0 0 0 0 0 0 0 0 0 0 0 0 0
0 0 0 0 0 0 0 0 0 0 0 0 0 0 0 0 0 0 0 0 0 0 0 0 0 0 0 0 0 0 0 0 0 0 0 0 0 0 0 0 0 0 0 0 0
0 0 0 0 0 0 0 0 0 0 0 0 0 0 0 0 0 0 0 0 0 0 0 0 0 0 0 0 0 0 0 0 0 0 0 0 0 0 0 0 0 0 0 0 0
0 0 0 0 0 0 0 0 0 0 0 0 0 0 0 0 0 0 0 0 0 0 0 0 0 0 0 0 0 0 0 0 0 0 0 0 0 0 0 0 0 0 0 0 0
0 0 0 0 0 0 0 0 0 0 0 0 0 0 0 0 0 0 0 0 0 0 0 0 0 0 0 0 0 0 0 0 0 0 0 0 0 0 0 0 0 0 0 0 0
0 0 0 0 0 0 0 0 0 0 0 0 0 0 0 0 0 0 0 0 0 0 0 0 0 0 0 0 0 0 0 0 0 0 0 0 0 0 0 0 0 0 0 0 0
0 0 0 0 0 0 0 0 0 0 0 0 0 0 0 0 0 0 0 0 0 0 0 0 0 0 0 0 0 0 0 0 0 0 0 0 0 0 0 0 0 0 0 0 0
0 0 0 0 0 0 0 0 0 0 0 0 0 0 0 0 0 0 0 0 0 0 0 0 0 0 0 0 0 0 0 0 0 0 0 0 0 0 0 0 0 0 0 0 0
0 0 0 0 -0 -0 0 0 0 0 0 0 0 0 0 0 0 0 0 0 0 0 0 0 0 0 0 0 0 0 0 0 0 0 0 0 0 0 0 0 0 0 0 0 0
0 0 0 0 0 0 0 0 0 -0 -0 0 0 0 0 0 0 0 0 0 0 0 0 0 0 0 0 0 0 0 0 0 0 0 0 0 0 0 0 0 0 0 0 0 0
0 0 0 0 -0 0 0 -2 -0 -1 0 0 0 0 0 0 0 0 0 0 0 0 0 0 0 0 0 0 0 0 0 0 0 0 0 0 0 0 0 0 0 0 0 0 0
0 0 0 0 0 0 -12 -3 -0 -1 -0 0 0 0 0 0 0 0 0 0 0 0 0 0 0 0 0 0 0 0 0 0 0 -1 -1 0 0 0 0 0 0 0 0 0 0
0 0 0 0 0 -7 -3 0 -1 -1 -1 0 0 0 -1 -4 0 -1 -0 0 0 0 0 0 0 0 0 0 0 0 0 0 0 0 0 0 0 0 0 0 0 0 0 0 0
0 0 0 0 0 -0 -0 0 -1 0 0 -0 0 0 0 -2 -4 -5 -2 0 0 0 0 0 0 0 0 0 0 0 0 0 0 -3 0 0 0 0 0 0 0 0 0 0 0
0 0 0 0 -0 0 0 -0 0 0 0 0 0 0 0 0 -1 -1 -1 -8 -11 -9 0 -8 -1 0 0 0 0 0 0 0 0 -7 -0 -0 0 0 0 0 0 0 0 0 0
0 0 0 0 0 -0 0 0 0 0 0 0 0 0 0 0 -1 -1 -2 -2 -14 0 -10 -16 -2 0 0 0 0 -0 -1 -1 -1 -4 -9 -1 -0 0 0 0 0 0 0 0 0
0 0 -5 -1 0 0 0 0 -0 0 0 0 0 -1 0 0 -1 0 0 -3 -9 -4 -1 -4 -1 -0 0 0 0 0 0 0 -14 0 -27 -12 -26 0 0 0 0 0 0 0 0
0 0 -2 -4 -0 0 0 0 -0 -0 -0 -0 0 0 -1 0 -0 -0 0 -8 0 -9 0 -3 -4 -4 -0 0 0 -3 0 -0 -2 -0 0 0 0 0 0 0 0 0 0 0 0
0 0 0 0 -1 -0 0 0 0 -0 -0 0 0 0 0 0 0 0 0 -2 -5 0 0 -0 0 -0 -0 -0 -2 -0 0 0 0 0 -0 0 0 0 0 0 0 0 0 0 0
0 0 0 -0 -0 -0 -0 0 0 -0 -0 0 0 -5 -8 -1 -0 0 0 0 -0 0 0 0 0 0 0 0 0 0 0 0 0 0 0 0 0 0 0 0 0 0 0 0 0
0 0 0 0 0 0 0 0 0 -0 -0 0 0 0 0 0 0 0 0 0 0 0 -0 -0 0 0 0 0 0 0 0 0 0 0 0 0 0 0 0 0 0 0 0 0 0
Wind_Speed
19 20 20 20 21 21 21 22 23 23 24 24 25 25 26 28 27 19 20 16 15 7 10 10 11 12 12 14 14 15 15 16 15 16 18 14 17 15 18 17 17 15 12 25 20
20 20 21 21 22 22 23 24 25 25 26 27 27 28 28 29 26 25 17 14 11 7 8 9 12 12 14 16 14 13 13 18 17 17 17 20 19 20 17 17 18 12 7 6 13
21 22 22 23 24 24 25 26 27 27 28 28 29 29 29 28 28 20 17 12 9 7 11 10 15 13 17 16 15 15 14 18 20 19 19 21 24 19 9 9 16 15 21 20 21
22 23 24 25 25 26 27 28 29 29 30 29 29 29 29 22 26 18 18 13 10 10 13 14 14 17 19 17 18 19 17 17 20 23 22 21 25 20 8 13 25 18 20 31 17
24 24 25 25 26 27 28 29 30 31 31 30 28 27 24 23 23 20 19 14 11 12 12 13 15 17 19 21 22 16 22 20 24 23 23 26 17 18 17 27 18 17 15 13 11
23 23 24 25 27 28 29 31 32 32 31 29 25 23 23 29 21 18 16 13 13 10 13 12 17 19 26 24 22 29 29 27 23 25 25 25 19 25 17 24 25 25 22 16 12
23 23 25 26 28 30 31 33 34 33 29 26 21 20 24 25 21 19 17 18 17 15 17 15 19 19 24 25 24 28 35 39 37 27 24 26 29 23 24 24 24 25 25 29 26
23 24 25 26 28 30 32 33 32 29 27 23 17 20 27 22 21 20 20 21 18 17 18 19 18 22 22 25 27 32 32 35 33 28 26 22 32 34 30 32 29 28 34 35 39
23 24 25 27 29 32 34 33 24 24 22 18 21 22 28 20 22 21 19 21 17 17 18 18 18 22 21 25 33 27 32 37 39 34 29 23 35 33 43 41 39 36 43 42 39
24 25 25 28 30 33 35 27 22 22 21 21 21 24 22 25 22 20 19 15 20 17 20 19 20 24 24 26 31 36 42 44 38 36 38 37 37 44 43 48 39 37 40 39 35
23 25 27 28 31 32 31 25 27 28 24 27 28 31 34 25 22 24 21 20 20 21 25 20 25 28 28 28 32 38 41 48 43 41 45 50 55 48 42 36 42 37 33 24 22
24 25 27 28 29 29 25 26 26 26 38 30 30 31 29 27 31 25 18 23 24 29 24 27 32 32 34 34 36 37 43 48 45 41 43 48 53 52 42 32 28 28 28 19 15
23 24 25 24 25 24 24 24 23 25 34 32 28 27 25 23 28 26 21 26 28 32 29 35 36 37 36 35 39 39 43 49 52 46 44 46 48 33 28 36 26 26 18 14 16
19 20 21 23 24 22 23 21 22 24 36 30 25 21 19 19 22 19 17 20 23 29 29 32 30 30 32 33 34 43 38 40 42 43 43 36 48 47 41 32 23 16 19 17 15
15 17 20 21 23 24 21 19 20 23 34 25 21 16 17 20 18 20 15 16 22 23 24 26 27 29 31 31 31 38 34 38 39 41 46 41 41 39 36 26 18 17 18 17 16
17 19 20 21 20 19 17 18 22 27 35 24 20 21 21 19 20 17 19 19 22 24 24 27 23 26 28 32 29 33 37 38 39 39 45 42 35 35 27 17 17 15 15 16 17
18 18 18 19 21 15 16 19 29 33 23 24 25 22 24 22 21 22 24 26 30 36 34 29 31 34 27 34 28 29 36 46 45 39 44 30 37 34 31 22 18 17 17 18 19
17 16 17 17 15 15 18 23 38 31 29 23 24 25 29 25 29 29 33 36 31 28 37 40 45 29 22 28 34 29 30 36 49 51 54 46 46 40 26 22 21 20 20 20 22
16 18 19 18 14 16 21 34 36 32 29 29 29 37 38 31 31 32 34 37 31 26 35 38 38 27 26 26 26 29 33 29 37 40 47 44 44 41 29 27 24 24 24 25 25
20 21 22 15 11 17 27 38 33 27 27 29 35 31 36 30 32 32 34 28 29 26 24 31 44 32 28 28 27 29 28 36 36 51 58 55 58 52 38 33 27 28 29 29 28
19 25 20 13 12 21 36 36 34 28 27 30 35 38 37 36 34 35 33 28 27 27 26 29 34 38 35 35 37 35 40 38 42 44 56 61 56 43 33 26 30 32 32 32 34
20 30 19 11 22 27 35 29 27 27 24 30 30 32 34 32 36 38 38 34 25 25 32 26 34 46 48 41 38 39 40 39 48 51 46 52 57 34 38 35 37 40 39 36 36
26 25 20 19 32 31 29 28 28 27 27 27 29 27 27 32 35 33 33 28 27 29 31 27 33 46 48 43 32 32 33 35 39 42 48 54 46 31 36 37 35 39 38 38 36
24 29 26 27 30 32 33 35 32 26 29 27 29 29 31 34 30 34 32 27 26 25 25 27 37 43 53 50 48 50 46 41 42 50 53 53 55 50 49 45 40 43 38 37 36
24 30 26 31 33 32 30 32 33 33 28 27 33 32 32 36 36 38 36 33 28 27 28 30 45 44 46 45 47 50 52 53 54 53 57 61 60 55 56 52 43 39 39 40 41
28 28 25 29 27 30 31 33 33 28 28 30 33 28 27 34 33 38 33 33 36 31 32 31 45 45 51 47 47 51 52 52 53 54 56 55 59 53 43 40 41 42 43 44 44
21 21 26 29 29 30 33 34 34 30 30 30 30 31 35 34 29 29 29 31 31 35 36 36 41 45 58 48 50 58 53 52 52 50 52 59 54 46 42 40 40 41 42 43 42
Wind_Direction
330 332 333 333 333 331 329 325 319 313 306 303 304 305 306 305 308 343 332 343 348 23 10 8 2 1 1 353 354 351 343 340 341 344 349 354 347 353 345 338 338 341 340 328 336
323 326 327 326 323 321 319 316 313 311 308 307 307 310 313 315 328 323 341 347 1 36 7 355 345 349 342 342 346 340 331 334 338 337 334 335 335 334 336 334 330 327 304 324 336
317 318 320 318 316 315 314 313 311 311 311 310 310 311 315 323 321 333 349 3 18 36 354 347 338 339 328 333 334 335 322 329 331 329 329 326 325 327 307 287 327 331 329 329 324
312 313 313 314 314 314 314 313 312 311 311 311 313 314 313 327 316 338 338 345 350 343 335 330 329 324 323 320 327 318 320 322 322 325 325 322 323 322 274 268 320 318 320 311 318
307 309 311 313 314 315 315 315 314 312 312 313 316 318 322 317 315 327 330 335 336 332 325 324 321 321 317 323 321 309 318 319 321 320 317 318 305 306 261 315 307 312 312 307 300
308 310 313 315 315 315 314 314 313 312 313 314 318 321 318 308 325 334 340 341 335 329 322 319 324 319 315 314 312 315 315 316 315 314 315 314 308 319 279 316 321 322 323 320 308
308 310 311 312 313 313 312 311 310 311 315 317 321 321 312 309 321 325 327 323 322 319 313 313 315 316 323 316 315 314 310 309 310 312 313 319 316 317 323 323 320 322 323 318 317
307 309 311 312 313 313 312 311 313 317 318 321 325 319 308 319 323 320 319 318 320 318 313 316 314 310 309 315 313 312 310 309 314 322 323 320 313 315 322 320 318 317 314 312 302
306 308 310 312 313 312 313 314 323 324 328 331 321 315 308 325 320 323 322 316 322 322 321 321 314 307 311 308 307 308 306 308 310 312 318 314 312 316 306 310 310 312 305 303 305
304 307 310 310 311 312 311 320 322 322 323 324 320 311 312 311 319 323 326 326 318 319 317 312 308 304 305 302 300 308 304 304 307 311 306 307 307 310 310 302 310 311 306 303 305
304 306 307 309 311 313 316 319 314 311 312 305 305 301 304 313 317 315 319 314 314 308 304 304 300 299 302 301 301 303 304 300 305 309 306 300 296 305 314 314 304 308 315 319 320
301 305 306 309 312 315 320 315 316 315 302 305 301 300 302 306 302 308 315 304 303 299 301 303 297 300 301 300 302 303 301 300 305 309 308 306 301 305 308 318 319 318 317 321 334
299 303 306 312 316 318 318 318 325 323 307 305 306 305 309 309 302 301 304 302 297 295 294 293 295 302 302 300 299 299 299 300 299 307 308 306 304 312 319 319 324 328 334 340 331
298 302 306 313 312 314 314 328 331 329 304 307 311 316 323 322 315 325 321 311 308 303 303 301 307 304 303 302 302 298 305 305 305 307 305 315 304 304 308 313 325 341 339 339 339
300 305 308 311 309 307 315 328 333 327 302 311 316 335 331 317 323 326 335 327 312 311 313 311 311 311 306 307 308 303 309 305 305 304 303 304 303 311 310 305 317 332 339 344 351
300 304 305 307 308 313 322 325 321 306 295 308 317 317 317 318 316 322 322 323 323 314 311 306 311 311 309 310 308 308 307 305 303 304 299 304 299 310 320 318 321 329 340 343 342
299 303 304 308 305 319 319 316 301 291 308 306 308 311 310 308 310 309 310 308 307 307 304 307 302 305 306 306 306 305 305 301 298 296 299 312 306 299 310 316 312 316 323 326 330
301 306 307 309 313 318 310 301 287 297 295 311 310 306 299 306 304 306 305 302 307 304 305 302 300 306 309 303 308 304 304 298 296 295 293 300 294 299 304 309 309 309 313 317 319
300 300 299 303 312 311 296 284 287 295 297 300 299 295 293 297 301 304 301 300 306 305 301 304 302 316 311 311 311 308 301 304 298 298 295 295 295 300 299 299 301 303 308 311 313
295 294 292 303 305 301 288 283 291 296 300 299 292 296 295 298 299 302 304 310 308 311 310 308 300 307 310 310 306 302 309 300 300 294 290 290 293 294 295 292 296 299 303 309 314
297 292 300 298 295 289 280 287 292 293 295 294 293 291 294 296 296 296 300 308 310 310 311 310 302 301 306 303 302 300 296 296 297 290 290 291 290 302 305 301 298 299 303 307 310
293 285 298 284 281 284 281 292 297 296 295 291 298 294 293 297 297 293 293 296 315 315 306 308 306 297 296 303 304 299 297 296 292 294 291 289 287 296 309 303 301 298 299 305 308
282 285 291 282 280 278 288 289 289 294 293 293 294 297 300 295 297 296 296 305 309 309 309 314 305 301 302 306 314 307 307 306 301 298 291 289 294 310 310 308 306 305 303 304 306
281 281 284 277 282 283 280 284 284 293 290 290 294 295 293 293 294 298 300 308 312 311 311 311 300 295 294 298 303 301 301 302 299 295 295 293 296 299 301 302 298 298 300 303 305
280 280 283 279 274 277 282 289 284 284 288 293 292 285 289 292 292 291 295 299 305 309 308 305 296 298 297 299 300 298 297 295 293 293 291 294 293 295 298 298 297 297 299 301 301
280 281 283 285 279 275 273 281 282 285 288 288 287 294 292 289 291 296 299 299 299 304 304 305 299 301 297 300 299 296 295 295 295 295 293 294 293 297 301 300 299 299 299 300 301
285 290 286 283 281 279 275 278 285 285 287 289 292 290 290 292 299 301 301 301 299 300 301 302 302 302 296 302 301 295 296 296 295 295 296 295 299 303 301 300 302 302 301 302 303